CW7625 Weather Reports


Display with metric or nautical units.
time (UTC)temp
F
wind
direction
speed
MPH
gust
MPH
rain 1hr
in
rain 24hr
in
rain mn
in
humidity
%
barometer
mb
20260508012109 63 327 0.0 2.0 0.00 0.00 0.00 85 1013.0
20260508011109 64 340 0.0 0.0 0.00 0.00 0.00 86 1013.0
20260508010109 64 340 0.0 0.0 0.00 0.00 0.00 85 1013.0
20260508005109 65 340 0.0 0.0 0.00 0.00 0.00 84 1012.9
20260508004109 66 340 0.0 0.0 0.00 0.00 0.00 83 1012.8
20260508003109 66 340 0.0 0.0 0.00 0.00 0.00 81 1012.8
20260508002109 67 340 0.0 0.0 0.00 0.00 0.00 81 1012.7
20260508001109 68 340 0.0 0.0 0.00 0.00 0.00 80 1012.9
20260507235109 69 340 0.0 0.0 0.00 0.00 0.00 80 1012.8
20260507234109 69 340 0.0 0.0 0.00 0.00 0.00 78 1012.8
20260507232109 70 340 0.0 0.0 0.00 0.00 0.00 75 1013.1
20260507231109 70 340 0.0 0.0 0.00 0.00 0.00 72 1013.1
20260507225109 71 340 0.0 0.0 0.00 0.00 0.00 65 1013.1
20260507224109 72 340 0.0 0.0 0.00 0.00 0.00 66 1013.2
20260507223109 72 340 0.0 1.0 0.00 0.00 0.00 64 1013.3
20260507222109 72 340 0.0 1.0 0.00 0.00 0.00 64 1013.3
20260507221109 72 340 0.0 2.0 0.00 0.00 0.00 55 1013.4
20260507220109 72 340 0.0 2.0 0.00 0.00 0.00 55 1013.3
20260507215109 72 47 1.0 4.0 0.00 0.00 0.00 56 1013.3
20260507212109 72 301 0.0 5.0 0.00 0.00 0.00 57 1013.4
20260507211110 72 294 1.0 5.0 0.00 0.00 0.00 56 1013.5
20260507210110 72 286 2.0 4.0 0.00 0.00 0.00 55 1013.8
20260507205109 73 287 1.0 3.0 0.00 0.00 0.00 56 1013.8
20260507204110 73 333 1.0 3.0 0.00 0.00 0.00 56 1014.0
20260507203110 72 80 2.0 4.0 0.00 0.00 0.00 58 1014.1
20260507202110 72 97 1.0 6.0 0.00 0.00 0.00 55 1014.2
20260507200110 71 9 1.0 9.0 0.00 0.00 0.00 56 1014.6
20260507195110 72 81 2.0 7.0 0.00 0.00 0.00 60 1014.7
20260507194109 71 301 3.0 5.0 0.00 0.00 0.00 59 1014.6
20260507193109 71 286 4.0 7.0 0.00 0.00 0.00 55 1014.7
20260507185110 69 286 1.0 7.0 0.00 0.00 0.00 58 1015.1
20260507184109 69 238 3.0 6.0 0.00 0.00 0.00 60 1015.4
20260507183110 69 71 1.0 8.0 0.00 0.00 0.00 59 1015.6
20260507182110 70 89 3.0 6.0 0.00 0.00 0.00 57 1016.0
20260507181110 69 66 2.0 6.0 0.00 0.00 0.00 57 1016.1
20260507175110 68 238 2.0 7.0 0.00 0.00 0.00 59 1016.4
20260507173110 68 272 1.0 6.0 0.00 0.04 0.00 62 1016.6
20260507172110 68 96 2.0 7.0 0.00 0.08 0.00 63 1016.8
20260507171110 67 178 1.0 4.0 0.00 0.14 0.00 60 1017.0
20260507170110 66 71 1.0 6.0 0.00 0.14 0.00 63 1017.2
20260507165110 66 67 4.0 7.0 0.00 0.14 0.00 62 1017.4
20260507164110 66 284 0.0 6.0 0.00 0.16 0.00 60 1017.5
20260507161110 66 39 1.0 5.0 0.00 0.21 0.00 60 1017.6
20260507160110 66 36 4.0 7.0 0.00 0.21 0.00 60 1017.5
20260507155110 65 297 1.0 7.0 0.00 0.21 0.00 62 1017.5
20260507153110 65 26 2.0 4.0 0.00 0.22 0.00 66 1017.9
20260507152110 65 69 2.0 4.0 0.00 0.22 0.00 67 1018.1
20260507151110 64 265 2.0 3.0 0.00 0.22 0.00 69 1018.1
20260507150110 64 68 1.0 5.0 0.00 0.22 0.00 72 1018.3
20260507145110 63 84 4.0 5.0 0.00 0.22 0.00 72 1018.2
20260507144110 63 94 2.0 4.0 0.00 0.22 0.00 72 1018.3
20260507143110 62 69 1.0 4.0 0.00 0.23 0.00 72 1018.2
20260507142110 62 84 2.0 5.0 0.00 0.23 0.00 74 1018.2
20260507141110 62 52 0.0 4.0 0.00 0.23 0.00 76 1018.3
20260507140110 61 40 2.0 4.0 0.00 0.23 0.00 76 1018.2
20260507135110 60 59 0.0 4.0 0.00 0.23 0.00 83 1018.1
20260507134110 59 298 0.0 2.0 0.00 0.23 0.00 85 1018.4
20260507133110 57 298 1.0 2.0 0.00 0.23 0.00 87 1018.2
20260507132110 56 298 0.0 3.0 0.00 0.23 0.00 89 1018.1
20260507131110 56 298 3.0 5.0 0.00 0.23 0.00 90 1018.0
20260507130110 55 334 2.0 3.0 0.00 0.23 0.00 92 1017.7
20260507125110 54 335 2.0 3.0 0.00 0.23 0.00 93 1017.5
20260507124110 54 342 1.0 2.0 0.00 0.23 0.00 94 1017.3
20260507122110 51 61 0.0 0.0 0.00 0.23 0.00 94 1016.4
20260507121110 50 61 0.0 0.0 0.00 0.23 0.00 93 1016.4
20260507120110 49 61 0.0 0.0 0.00 0.23 0.00 92 1016.4
20260507115110 48 61 0.0 0.0 0.00 0.23 0.00 92 1016.0
20260507113110 49 61 0.0 0.0 0.00 0.23 0.00 92 1015.6
20260507112110 50 61 0.0 0.0 0.00 0.23 0.00 92 1015.4
20260507111110 50 61 0.0 0.0 0.00 0.23 0.00 92 1015.3
20260507105041 51 61 0.0 0.0 0.00 0.23 0.00 92 1015.5
20260507104110 51 61 0.0 0.0 0.00 0.23 0.00 92 1015.4
20260507103040 51 61 0.0 1.0 0.00 0.23 0.00 92 1015.4
20260507102041 51 61 0.0 0.0 0.00 0.23 0.00 92 1015.5
20260507101110 51 61 0.0 0.0 0.00 0.23 0.00 92 1015.5
20260507100110 51 61 0.0 0.0 0.00 0.23 0.00 92 1015.6
20260507095040 51 61 0.0 0.0 0.00 0.23 0.00 91 1015.8
20260507094111 51 61 0.0 0.0 0.00 0.23 0.00 91 1015.7
20260507093111 51 61 0.0 0.0 0.00 0.23 0.00 91 1015.6
20260507092110 51 61 0.0 0.0 0.00 0.23 0.00 91 1015.4
20260507090111 52 61 0.0 0.0 0.00 0.23 0.00 91 1015.3
20260507084041 52 61 0.0 0.0 0.00 0.23 0.00 91 1014.9
20260507083111 53 61 0.0 0.0 0.00 0.23 0.00 91 1014.9
20260507081111 53 61 0.0 0.0 0.00 0.23 0.00 91 1015.0
20260507080111 54 61 0.0 0.0 0.00 0.23 0.00 91 1015.0
20260507075111 54 61 0.0 0.0 0.00 0.23 0.00 91 1015.0
20260507074041 54 61 0.0 0.0 0.00 0.23 0.00 91 1015.1
20260507073111 54 61 0.0 0.0 0.00 0.23 0.00 91 1015.1
20260507072111 54 61 0.0 1.0 0.00 0.23 0.00 91 1015.2
20260507071111 54 61 0.0 2.0 0.00 0.23 0.00 91 1015.1
20260507070111 55 63 0.0 0.0 0.00 0.23 0.00 91 1014.6
20260507065041 55 63 0.0 0.0 0.00 0.23 0.00 91 1014.8
20260507064111 55 63 0.0 0.0 0.00 0.23 0.00 91 1015.1
20260507063041 56 63 0.0 0.0 0.00 0.23 0.00 91 1015.3
20260507062111 55 63 0.0 0.0 0.00 0.23 0.00 91 1015.4
20260507061041 55 63 0.0 0.0 0.00 0.23 0.00 91 1015.5
20260507060111 55 63 0.0 0.0 0.00 0.23 0.00 91 1015.7
20260507055041 55 63 0.0 0.0 0.00 0.23 0.00 91 1015.7
20260507054111 55 63 0.0 0.0 0.00 0.23 0.00 91 1015.7
20260507053041 55 63 0.0 0.0 0.00 0.23 0.00 90 1015.6
20260507052111 55 63 0.0 0.0 0.00 0.23 0.00 91 1015.8
20260507051041 55 63 0.0 0.0 0.00 0.23 0.00 91 1015.6
20260507050111 55 63 0.0 1.0 0.00 0.23 0.00 91 1015.7
20260507045111 55 63 0.0 0.0 0.00 0.23 0.23 91 1015.7
20260507044111 55 63 0.0 0.0 0.00 0.23 0.23 90 1015.5
20260507043111 55 63 0.0 0.0 0.00 0.23 0.23 90 1015.7
20260507042111 55 63 0.0 0.0 0.00 0.23 0.23 90 1015.4
20260507041111 55 63 0.0 0.0 0.00 0.23 0.23 90 1015.5
20260507040111 55 63 0.0 0.0 0.00 0.23 0.23 90 1015.5
20260507035111 55 63 0.0 0.0 0.00 0.23 0.23 90 1015.5
20260507034111 55 63 0.0 0.0 0.00 0.23 0.23 90 1015.3
20260507033111 55 63 0.0 1.0 0.00 0.23 0.23 90 1015.2
20260507032111 55 63 0.0 0.0 0.00 0.23 0.23 90 1015.1
20260507030111 55 63 0.0 0.0 0.00 0.23 0.23 89 1014.8
20260507025111 56 63 0.0 0.0 0.00 0.23 0.23 90 1014.7
20260507024111 55 63 0.0 0.0 0.00 0.23 0.23 89 1014.4
20260507023112 55 63 0.0 2.0 0.00 0.23 0.23 89 1014.3
20260507021111 55 63 0.0 2.0 0.00 0.23 0.23 89 1013.9
20260507020112 55 63 1.0 2.0 0.00 0.23 0.23 89 1013.9
20260507015112 55 63 1.0 3.0 0.00 0.23 0.23 89 1013.7
20260507014111 55 57 2.0 3.0 0.00 0.23 0.23 89 1013.6
20260507013112 55 57 2.0 5.0 0.00 0.23 0.23 89 1013.4